TimeEDT,TemperatureF,Dew PointF,Humidity,Sea Level PressureIn,VisibilityMPH,Wind Direction,Wind SpeedMPH,Gust SpeedMPH,PrecipitationIn,Events,Conditions,WindDirDegrees,DateUTC
12:15 AM,44.6,44.6,100,30.33,10.0,Calm,Calm,-,N/A,,Clear,0,2012-10-14 04:15:00
12:35 AM,44.6,44.6,100,30.33,10.0,Calm,Calm,-,N/A,,Clear,0,2012-10-14 04:35:00
12:55 AM,44.6,42.8,93,30.32,10.0,Calm,Calm,-,N/A,,Clear,0,2012-10-14 04:55:00
1:15 AM,44.6,42.8,93,30.33,10.0,Calm,Calm,-,N/A,,Clear,0,2012-10-14 05:15:00
1:35 AM,42.8,42.8,100,30.32,10.0,Calm,Calm,-,N/A,,Clear,0,2012-10-14 05:35:00
1:55 AM,42.8,42.8,100,30.32,10.0,Calm,Calm,-,N/A,,Clear,0,2012-10-14 05:55:00
2:15 AM,42.8,42.8,100,30.31,7.0,Calm,Calm,-,N/A,,Clear,0,2012-10-14 06:15:00
2:35 AM,42.8,42.8,100,30.30,10.0,Calm,Calm,-,N/A,,Clear,0,2012-10-14 06:35:00
2:55 AM,42.8,42.8,100,30.30,10.0,Calm,Calm,-,N/A,,Clear,0,2012-10-14 06:55:00
3:15 AM,42.8,42.8,100,30.30,10.0,Calm,Calm,-,N/A,,Scattered Clouds,0,2012-10-14 07:15:00
3:35 AM,44.6,44.6,100,30.30,10.0,Calm,Calm,-,N/A,,Mostly Cloudy,0,2012-10-14 07:35:00
3:55 AM,44.6,44.6,100,30.29,10.0,Calm,Calm,-,N/A,,Overcast,0,2012-10-14 07:55:00
4:15 AM,44.6,44.6,100,30.29,10.0,Calm,Calm,-,N/A,,Mostly Cloudy,0,2012-10-14 08:15:00
4:35 AM,42.8,42.8,100,30.28,7.0,Calm,Calm,-,N/A,,Scattered Clouds,0,2012-10-14 08:35:00
4:55 AM,42.8,42.8,100,30.28,7.0,Calm,Calm,-,N/A,,Clear,0,2012-10-14 08:55:00
5:15 AM,42.8,42.8,100,30.28,10.0,Calm,Calm,-,N/A,,Clear,0,2012-10-14 09:15:00
5:35 AM,42.8,42.8,100,30.27,7.0,Calm,Calm,-,N/A,,Clear,0,2012-10-14 09:35:00
5:55 AM,42.8,42.8,100,30.27,7.0,Calm,Calm,-,N/A,,Clear,0,2012-10-14 09:55:00
6:15 AM,42.8,42.8,100,30.27,7.0,Calm,Calm,-,N/A,,Clear,0,2012-10-14 10:15:00
6:35 AM,42.8,42.8,100,30.28,10.0,Calm,Calm,-,N/A,,Clear,0,2012-10-14 10:35:00
6:55 AM,42.8,42.8,100,30.28,7.0,Calm,Calm,-,N/A,,Clear,0,2012-10-14 10:55:00
7:15 AM,42.8,42.8,100,30.28,10.0,Calm,Calm,-,N/A,,Clear,0,2012-10-14 11:15:00
7:35 AM,42.8,42.8,100,30.29,5.0,Calm,Calm,-,N/A,,Clear,0,2012-10-14 11:35:00
7:55 AM,44.6,44.6,100,30.28,10.0,Calm,Calm,-,N/A,,Mostly Cloudy,0,2012-10-14 11:55:00
8:15 AM,44.6,44.6,100,30.28,7.0,Calm,Calm,-,N/A,,Overcast,0,2012-10-14 12:15:00
8:35 AM,46.4,46.4,100,30.28,10.0,Calm,Calm,-,N/A,,Overcast,0,2012-10-14 12:35:00
8:55 AM,48.2,46.4,93,30.28,10.0,Calm,Calm,-,N/A,,Overcast,0,2012-10-14 12:55:00
9:15 AM,50.0,48.2,94,30.28,7.0,Calm,Calm,-,N/A,,Overcast,0,2012-10-14 13:15:00
9:35 AM,50.0,48.2,94,30.29,10.0,Calm,Calm,-,N/A,,Overcast,0,2012-10-14 13:35:00
9:55 AM,51.8,50.0,94,30.28,10.0,Calm,Calm,-,N/A,,Overcast,0,2012-10-14 13:55:00
10:15 AM,51.8,50.0,94,30.28,10.0,Calm,Calm,-,N/A,,Overcast,0,2012-10-14 14:15:00
10:35 AM,53.6,50.0,88,30.27,10.0,Calm,Calm,-,N/A,,Overcast,0,2012-10-14 14:35:00
10:55 AM,55.4,51.8,88,30.27,10.0,Calm,Calm,-,N/A,,Overcast,0,2012-10-14 14:55:00
11:15 AM,59.0,50.0,72,30.27,10.0,Calm,Calm,-,N/A,,Overcast,0,2012-10-14 15:15:00
11:35 AM,62.6,51.8,68,30.26,10.0,Calm,Calm,-,N/A,,Overcast,0,2012-10-14 15:35:00
11:55 AM,64.4,50.0,59,30.25,10.0,SE,4.6,-,N/A,,Overcast,140,2012-10-14 15:55:00
12:15 PM,66.2,46.4,49,30.25,10.0,Calm,Calm,-,N/A,,Overcast,0,2012-10-14 16:15:00
12:35 PM,68.0,50.0,52,30.24,10.0,West,3.5,-,N/A,,Mostly Cloudy,260,2012-10-14 16:35:00
12:55 PM,68.0,51.8,56,30.23,10.0,WSW,4.6,-,N/A,,Overcast,240,2012-10-14 16:55:00
1:15 PM,68.0,51.8,56,30.23,10.0,SW,3.5,-,N/A,,Overcast,230,2012-10-14 17:15:00
1:35 PM,68.0,53.6,60,30.22,10.0,WSW,3.5,-,N/A,,Overcast,240,2012-10-14 17:35:00
1:55 PM,68.0,53.6,60,30.22,10.0,SW,4.6,-,N/A,,Overcast,230,2012-10-14 17:55:00
2:15 PM,68.0,53.6,60,30.20,10.0,WSW,3.5,-,N/A,,Overcast,240,2012-10-14 18:15:00
2:35 PM,68.0,53.6,60,30.18,10.0,West,3.5,-,N/A,,Overcast,280,2012-10-14 18:35:00
2:55 PM,68.0,55.4,64,30.18,10.0,WSW,3.5,-,N/A,,Overcast,250,2012-10-14 18:55:00
3:15 PM,68.0,55.4,64,30.17,10.0,WSW,3.5,-,N/A,,Overcast,240,2012-10-14 19:15:00
3:35 PM,68.0,55.4,64,30.16,10.0,West,3.5,-,N/A,,Overcast,260,2012-10-14 19:35:00
3:55 PM,69.8,55.4,60,30.15,10.0,West,4.6,-,N/A,,Overcast,280,2012-10-14 19:55:00
4:15 PM,68.0,55.4,64,30.14,10.0,West,3.5,-,N/A,,Overcast,280,2012-10-14 20:15:00
4:35 PM,68.0,55.4,64,30.13,10.0,West,5.8,-,N/A,,Overcast,280,2012-10-14 20:35:00
4:55 PM,68.0,55.4,64,30.12,10.0,West,3.5,-,N/A,,Overcast,280,2012-10-14 20:55:00
5:15 PM,68.0,55.4,64,30.12,10.0,Calm,Calm,-,N/A,,Overcast,0,2012-10-14 21:15:00
5:35 PM,68.0,57.2,68,30.12,10.0,Calm,Calm,-,N/A,,Overcast,0,2012-10-14 21:35:00
5:55 PM,68.0,57.2,68,30.11,10.0,Calm,Calm,-,N/A,,Overcast,0,2012-10-14 21:55:00
6:15 PM,66.2,57.2,73,30.11,10.0,Calm,Calm,-,N/A,,Overcast,0,2012-10-14 22:15:00
6:35 PM,64.4,57.2,77,30.11,10.0,Calm,Calm,-,N/A,,Overcast,0,2012-10-14 22:35:00
6:55 PM,62.6,59.0,88,30.10,10.0,Calm,Calm,-,N/A,,Overcast,0,2012-10-14 22:55:00
7:15 PM,62.6,59.0,88,30.10,10.0,Calm,Calm,-,N/A,,Overcast,0,2012-10-14 23:15:00
7:35 PM,60.8,59.0,94,30.09,10.0,Calm,Calm,-,N/A,,Mostly Cloudy,0,2012-10-14 23:35:00
7:55 PM,60.8,59.0,94,30.08,10.0,Calm,Calm,-,N/A,,Clear,0,2012-10-14 23:55:00
8:15 PM,60.8,59.0,94,30.08,10.0,Calm,Calm,-,N/A,,Clear,0,2012-10-15 00:15:00
8:35 PM,59.0,59.0,100,30.08,10.0,Calm,Calm,-,N/A,,Clear,0,2012-10-15 00:35:00
8:55 PM,59.0,57.2,94,30.08,10.0,Calm,Calm,-,N/A,,Clear,0,2012-10-15 00:55:00
9:15 PM,59.0,57.2,94,30.07,10.0,Calm,Calm,-,N/A,,Scattered Clouds,0,2012-10-15 01:15:00
9:35 PM,59.0,57.2,94,30.06,7.0,Calm,Calm,-,N/A,,Mostly Cloudy,0,2012-10-15 01:35:00
9:55 PM,59.0,57.2,94,30.05,7.0,Calm,Calm,-,N/A,,Scattered Clouds,0,2012-10-15 01:55:00
10:15 PM,57.2,57.2,100,30.05,7.0,Calm,Calm,-,N/A,,Clear,0,2012-10-15 02:15:00
10:35 PM,55.4,55.4,100,30.06,10.0,Calm,Calm,-,N/A,,Scattered Clouds,0,2012-10-15 02:35:00
10:55 PM,57.2,57.2,100,30.05,10.0,Calm,Calm,-,N/A,,Mostly Cloudy,0,2012-10-15 02:55:00
11:15 PM,59.0,59.0,100,30.05,10.0,Calm,Calm,-,N/A,,Overcast,0,2012-10-15 03:15:00
11:35 PM,59.0,59.0,100,30.06,10.0,Calm,Calm,-,N/A,,Overcast,0,2012-10-15 03:35:00
11:55 PM,59.0,59.0,100,30.05,10.0,Calm,Calm,-,N/A,,Overcast,0,2012-10-15 03:55:00